Location: Killam
(52.7910°N, 111.8608°W)
Time: 09:01:20
(UTC+00:00)

NOAA 15 - Visible Passes

Search period start: 08 December 2023 00:00
Search period end: 18 December 2023 00:00
Orbit: 796 x 811 km, 98.6° (Epoch: 08 December)

Date Brightness Start Highest point End Pass type
(mag) Time Alt. Az. Time Alt. Az. Time Alt. Az.
08 Dec 4.7 01:24:09 10° SE 01:29:13 48° ENE 01:34:18 10° N visible
08 Dec 6.2 03:04:28 10° SSW 03:09:10 32° W 03:13:55 10° NNW visible
08 Dec 7.8 13:35:08 10° ENE 13:36:31 11° E 13:37:55 10° E visible
09 Dec 5.2 00:59:08 10° ESE 01:03:49 33° ENE 01:08:29 10° N visible
09 Dec 5.4 02:38:18 10° S 02:43:25 50° W 02:48:34 10° NNW visible
09 Dec 6.1 14:46:42 10° NNE 14:51:40 40° E 14:56:35 10° SSE visible
10 Dec 5.7 00:34:27 10° ESE 00:38:30 23° NE 00:42:32 10° N visible
10 Dec 4.6 02:12:27 10° S 02:17:45 77° WSW 02:23:04 10° NNW visible
10 Dec 7.3 03:55:43 10° WSW 03:58:25 14° W 04:01:07 10° NW visible
10 Dec 6.9 14:21:28 10° NE 14:25:51 26° E 14:30:13 10° SSE visible
11 Dec 6.0 00:10:08 10° E 00:13:15 16° NE 00:16:23 10° NNE visible
11 Dec 4.4 01:46:55 10° SSE 01:52:11 71° ENE 01:57:27 10° NNW visible
11 Dec 6.8 03:28:25 10° SW 03:32:28 22° W 03:36:31 10° NW visible
11 Dec 7.4 13:56:34 10° NE 13:59:57 17° E 14:03:18 10° SE visible
12 Dec 4.8 01:21:39 10° SE 01:26:41 46° ENE 01:31:43 10° N visible
12 Dec 6.1 03:01:51 10° SSW 03:06:37 33° W 03:11:23 10° NNW visible
12 Dec 7.9 13:33:02 10° ENE 13:33:55 10° E 13:34:49 10° E visible
13 Dec 5.3 00:56:41 10° ESE 01:01:17 32° ENE 01:05:54 10° N visible
13 Dec 5.3 02:35:43 10° S 02:40:52 52° W 02:46:02 10° NNW visible
13 Dec 6.2 14:44:11 10° NNE 14:49:05 39° E 14:53:58 10° SSE visible
14 Dec 5.7 00:32:01 10° ESE 00:35:58 22° NE 00:39:56 10° N visible
14 Dec 4.6 02:09:54 10° SSE 02:15:12 80° WSW 02:20:31 10° NNW visible
14 Dec 7.3 03:52:58 10° WSW 03:55:49 15° W 03:58:41 10° NW visible
14 Dec 7.0 14:18:57 10° NE 14:23:16 25° E 14:27:33 10° SSE visible
15 Dec 6.1 00:07:45 10° E 00:10:44 16° NE 00:13:45 10° NNE visible
15 Dec 4.5 01:44:23 10° SSE 01:49:38 68° ENE 01:54:52 10° NNW visible
15 Dec 6.7 03:25:46 10° SW 03:29:53 23° W 03:34:00 10° NW visible
15 Dec 7.4 13:54:06 10° NE 13:57:21 16° E 14:00:34 10° SE visible
16 Dec 4.8 01:19:09 10° SE 01:24:09 45° ENE 01:29:08 10° N visible
16 Dec 6.0 02:59:13 10° SSW 03:04:02 35° W 03:08:51 10° NNW visible
17 Dec 5.3 00:54:12 10° ESE 00:58:45 30° ENE 01:03:17 10° N visible
17 Dec 5.2 02:33:07 10° S 02:38:17 54° W 02:43:28 10° NNW visible
17 Dec 6.3 14:41:38 10° NNE 14:46:30 37° E 14:51:20 10° SSE visible
